Weather History for KOLZ - September, 2013

Change the Weather History Date:

Thursday, September 12, 2013

  Actual Average Record
Temperature  
Mean Temperature 64 °F -  
Max Temperature 75 °F 76 °F 91 °F (1984)
Min Temperature 53 °F 54 °F 30 °F (1955)
Degree Days  
Heating Degree Days 1    
Growing Degree Days 14 (Base 50)    
Moisture  
Dew Point 52 °F    
Average Humidity 68    
Maximum Humidity 94    
Minimum Humidity 36    
Precipitation  
Precipitation 0.00 in - - ()
Sea Level Pressure  
Sea Level Pressure 30.13 in    
Wind  
Wind Speed 8 mph (NNW)    
Max Wind Speed 20 mph    
Max Gust Speed 30 mph    
Visibility 10 miles    
Events      
Averages and records for this station are not official NWS values.
T = Trace of Precipitation, MM = Missing Value Source: NWS Daily Summary

Daily Weather History Graph

Daily Weather History Graph

Search for Another Location

Airport or City:

Trip Planner

Search our weather history database for the weather conditions in past years. The results will help you decide how hot, cold, wet, or windy it might be!

Date:

Astronomy

Sep. 12, 2013 Rise Set
Actual Time 6:44 AM CDT 7:22 PM CDT
Civil Twilight 6:16 AM CDT 7:50 PM CDT
Nautical Twilight 5:42 AM CDT 8:24 PM CDT
Astronomical Twilight 5:07 AM CDT 8:59 PM CDT
Moon 2:21 PM CDT (9/12) No Moon Set
Length of Visible Light 13h 34m
Length of Day
12h 37m
Waxing Crescent, 50% of the Moon is Illuminated
Sep 12
Waxing Crescent
Sep 12
First Quarter
Sep 19
Full
Sep 26
Last Quarter
Oct 4
New

Hourly Weather History & Observations

Time (CDT) Temp. Dew Point Humidity Pressure Visibility Wind Dir Wind Speed Gust Speed Precip Events Conditions
12:15 AM 62.6 °F 59.0 °F 88% 30.07 in 10.0 mi WNW 5.8 mph - N/A   Clear
12:35 AM 62.6 °F 59.0 °F 88% 30.07 in 10.0 mi NW 4.6 mph - N/A   Clear
12:55 AM 62.6 °F 59.0 °F 88% 30.06 in 10.0 mi North 3.5 mph - N/A   Clear
1:15 AM 62.6 °F 59.0 °F 88% 30.06 in 10.0 mi NNW 5.8 mph - N/A   Clear
1:35 AM 64.4 °F 59.0 °F 83% 30.06 in 10.0 mi North 3.5 mph - N/A   Clear
1:55 AM 60.8 °F 59.0 °F 94% 30.06 in 10.0 mi WNW 4.6 mph - N/A   Clear
2:15 AM 60.8 °F 57.2 °F 88% 30.06 in 10.0 mi WNW 4.6 mph - N/A   Clear
2:35 AM 60.8 °F 57.2 °F 88% 30.06 in 10.0 mi West 4.6 mph - N/A   Clear
2:55 AM 60.8 °F 57.2 °F 88% 30.06 in 10.0 mi WNW 4.6 mph - N/A   Partly Cloudy
3:15 AM 60.8 °F 57.2 °F 88% 30.08 in 10.0 mi NW 6.9 mph - N/A   Clear
3:35 AM 59.0 °F 57.2 °F 94% 30.08 in 10.0 mi NW 5.8 mph - N/A   Partly Cloudy
3:55 AM 60.8 °F 57.2 °F 88% 30.08 in 10.0 mi NW 5.8 mph - N/A   Mostly Cloudy
4:15 AM 59.0 °F 57.2 °F 94% 30.08 in 10.0 mi NW 4.6 mph - N/A   Mostly Cloudy
4:35 AM 59.0 °F 57.2 °F 94% 30.08 in 10.0 mi NW 5.8 mph - N/A   Partly Cloudy
4:55 AM 59.0 °F 55.4 °F 88% 30.09 in 10.0 mi NW 5.8 mph - N/A   Clear
5:15 AM 59.0 °F 55.4 °F 88% 30.10 in 10.0 mi NW 6.9 mph - N/A   Clear
5:35 AM 57.2 °F 55.4 °F 94% 30.09 in 10.0 mi NW 5.8 mph - N/A   Clear
5:55 AM 57.2 °F 55.4 °F 94% 30.10 in 10.0 mi NW 5.8 mph - N/A   Clear
6:15 AM 57.2 °F 55.4 °F 94% 30.10 in 10.0 mi NW 5.8 mph - N/A   Clear
6:35 AM 55.4 °F 53.6 °F 94% 30.11 in 10.0 mi NW 6.9 mph - N/A   Clear
6:55 AM 55.4 °F 53.6 °F 94% 30.11 in 10.0 mi NW 6.9 mph - N/A   Clear
7:15 AM 57.2 °F 53.6 °F 88% 30.11 in 10.0 mi NNW 8.1 mph - N/A   Clear
7:35 AM 57.2 °F 53.6 °F 88% 30.12 in 9.0 mi NNW 8.1 mph - N/A   Clear
7:55 AM 59.0 °F 53.6 °F 82% 30.13 in 10.0 mi NNW 8.1 mph - N/A   Clear
8:15 AM 59.0 °F 53.6 °F 82% 30.13 in - NNW 8.1 mph - N/A   Clear
8:35 AM 60.8 °F 53.6 °F 77% 30.13 in 10.0 mi NNW 9.2 mph - N/A   Clear
8:55 AM 62.6 °F 53.6 °F 72% 30.13 in 10.0 mi North 10.4 mph - N/A   Clear
9:15 AM 62.6 °F 53.6 °F 72% 30.14 in 10.0 mi North 11.5 mph - N/A   Clear
9:35 AM 64.4 °F 51.8 °F 64% 30.14 in 10.0 mi North 12.7 mph 20.7 mph N/A   Clear
9:55 AM 66.2 °F 51.8 °F 60% 30.15 in 10.0 mi NNW 12.7 mph - N/A   Clear
10:15 AM 66.2 °F 51.8 °F 60% 30.15 in 10.0 mi North 12.7 mph - N/A   Clear
10:35 AM 68.0 °F 50.0 °F 52% 30.15 in 10.0 mi North 16.1 mph 23.0 mph N/A   Clear
10:55 AM 68.0 °F 51.8 °F 56% 30.15 in 10.0 mi NNW 12.7 mph 19.6 mph N/A   Clear
11:15 AM 69.8 °F 50.0 °F 49% 30.17 in 10.0 mi NNW 15.0 mph 27.6 mph N/A   Clear
11:35 AM 69.8 °F 50.0 °F 49% 30.17 in 10.0 mi NNW 16.1 mph 23.0 mph N/A   Clear
11:55 AM 71.6 °F 48.2 °F 43% 30.16 in 10.0 mi NNW 15.0 mph 24.2 mph N/A   Clear
12:15 PM 71.6 °F 48.2 °F 43% 30.16 in 10.0 mi NNW 15.0 mph 23.0 mph N/A   Clear
12:35 PM 71.6 °F 48.2 °F 43% 30.16 in 10.0 mi NNW 16.1 mph - N/A   Clear
12:55 PM 71.6 °F 48.2 °F 43% 30.15 in 10.0 mi North 13.8 mph 26.5 mph N/A   Clear
1:15 PM 73.4 °F 48.2 °F 41% 30.16 in 10.0 mi NNW 13.8 mph 23.0 mph N/A   Clear
1:35 PM 73.4 °F 48.2 °F 41% 30.15 in 10.0 mi NNW 16.1 mph 24.2 mph N/A   Clear
1:55 PM 73.4 °F 46.4 °F 38% 30.15 in 10.0 mi North 15.0 mph 24.2 mph N/A   Clear
2:15 PM 73.4 °F 48.2 °F 41% 30.15 in 10.0 mi NW 16.1 mph 23.0 mph N/A   Clear
2:35 PM 73.4 °F 46.4 °F 38% 30.14 in 10.0 mi North 17.3 mph 23.0 mph N/A   Clear
2:55 PM 73.4 °F 48.2 °F 41% 30.14 in 10.0 mi North 16.1 mph 29.9 mph N/A   Partly Cloudy
3:15 PM 73.4 °F 48.2 °F 41% 30.14 in 10.0 mi North 18.4 mph 24.2 mph N/A   Scattered Clouds
3:35 PM 75.2 °F 46.4 °F 36% 30.14 in 10.0 mi North 16.1 mph 25.3 mph N/A   Mostly Cloudy
3:55 PM 75.2 °F 48.2 °F 38% 30.14 in 10.0 mi NNW 12.7 mph 21.9 mph N/A   Mostly Cloudy
4:15 PM 73.4 °F 48.2 °F 41% 30.13 in 10.0 mi NNW 13.8 mph - N/A   Mostly Cloudy
4:35 PM 73.4 °F 48.2 °F 41% 30.13 in 10.0 mi NNW 12.7 mph 23.0 mph N/A   Mostly Cloudy
4:55 PM 73.4 °F 46.4 °F 38% 30.13 in 10.0 mi North 19.6 mph - N/A   Mostly Cloudy
5:15 PM 71.6 °F 46.4 °F 41% 30.13 in 10.0 mi NNW 13.8 mph 20.7 mph N/A   Scattered Clouds
5:35 PM 71.6 °F 46.4 °F 41% 30.13 in - North 17.3 mph - N/A   Partly Cloudy
5:55 PM 71.6 °F 48.2 °F 43% 30.13 in 10.0 mi North 11.5 mph - N/A   Partly Cloudy
6:15 PM 69.8 °F 48.2 °F 46% 30.14 in 10.0 mi North 11.5 mph 18.4 mph N/A   Scattered Clouds
6:35 PM 69.8 °F 50.0 °F 49% 30.14 in 10.0 mi North 9.2 mph 15.0 mph N/A   Scattered Clouds
6:55 PM 66.2 °F 50.0 °F 56% 30.14 in 10.0 mi North 6.9 mph - N/A   Partly Cloudy
7:15 PM 64.4 °F 50.0 °F 59% 30.15 in 10.0 mi North 5.8 mph - N/A   Scattered Clouds
7:35 PM 62.6 °F 50.0 °F 63% 30.15 in 10.0 mi North 6.9 mph - N/A   Scattered Clouds
7:55 PM 60.8 °F 50.0 °F 68% 30.16 in 10.0 mi North 5.8 mph - N/A   Partly Cloudy
8:15 PM 60.8 °F 50.0 °F 68% 30.16 in 10.0 mi North 6.9 mph - N/A   Clear
8:35 PM 59.0 °F 50.0 °F 72% 30.17 in 10.0 mi North 6.9 mph - N/A   Clear
8:55 PM 59.0 °F 50.0 °F 72% 30.17 in 10.0 mi North 5.8 mph - N/A   Clear
9:15 PM 57.2 °F 50.0 °F 77% 30.18 in 10.0 mi North 6.9 mph - N/A   Clear
9:35 PM 57.2 °F 50.0 °F 77% 30.18 in 10.0 mi North 6.9 mph - N/A   Clear
9:55 PM 57.2 °F 50.0 °F 77% 30.18 in 10.0 mi North 8.1 mph - N/A   Clear
10:15 PM 57.2 °F 50.0 °F 77% 30.18 in 10.0 mi NNW 5.8 mph - N/A   Clear
10:35 PM 55.4 °F 50.0 °F 82% 30.19 in 10.0 mi North 5.8 mph - N/A   Clear
10:55 PM 55.4 °F 48.2 °F 77% 30.19 in 10.0 mi North 6.9 mph - N/A   Clear
11:15 PM 55.4 °F 48.2 °F 77% 30.19 in 10.0 mi North 5.8 mph - N/A   Clear
11:35 PM 53.6 °F 48.2 °F 82% 30.20 in 10.0 mi North 5.8 mph - N/A   Clear
11:55 PM 53.6 °F 48.2 °F 82% 30.20 in 10.0 mi North 6.9 mph - N/A   Clear